Regional Weather Roundup
Issued by NWS

Home | Current Version | Previous Version | Text Only | Print | Product List | Glossary Off
Versions: 1 2 3 4 5 6 7 8 9 10 11 12 13 14 15 16 17 18 19 20 21 22 23 24 25 26 27 28 29 30 31 32 33 34 35 36 37 38 39 40 41 42 43 44 45 46 47 48 49 50

000
ASUS43 KMKX 281721
RWRWI

WISCONSIN REGIONAL WEATHER ROUNDUP
NATIONAL WEATHER SERVICE MILWAUKEE/SULLIVAN WI
1200 PM CDT WED JUN 28 2017

NOTE: "FAIR" INDICATES FEW OR NO CLOUDS BELOW 12,000 FEET WITH NO
SIGNIFICANT WEATHER AND/OR OBSTRUCTIONS TO VISIBILITY.

WIZ001-002-006>008-014>016-023>028-281800-
NORTHWEST WISCONSIN

CITY           SKY/WX    TMP DP  RH WIND       PRES   REMARKS
SUPERIOR ARPT  NOT AVBL
ASHLAND        RAIN      62  60  93 VRB3      29.66F FOG
HAYWARD        LGT RAIN  61  58  90 S10       29.66F
SIREN          LGT RAIN  64  63  94 SE9G16    29.59F
CUMBERLAND     CLOUDY    61  61 100 SE8       29.64F
RICE LAKE      LGT RAIN  64  63  95 SE9       29.64F
CHETEK         DRIZZLE   63  63  99 SE9       29.66F
LADYSMITH      DRIZZLE   62  60  94 SE9       29.71F
EAU CLAIRE     LGT RAIN  66  64  93 S12       29.66F
MENOMONIE      CLOUDY    67  65  93 SE9       29.64F
NEW RICHMOND   CLOUDY    67  65  94 S13       29.59F
OSCEOLA        CLOUDY    67  67 100 SE10G17   29.60F
$$

WIZ003>005-009-010-017-018-281800-
NORTH CENTRAL WISCONSIN

CITY           SKY/WX    TMP DP  RH WIND       PRES   REMARKS
MANITOWISH WTR CLOUDY    61  59  92 S9        29.74S
ARBOR VITAE    CLOUDY    62  57  83 S8        29.74S
WOODRUFF       CLOUDY    62  57  83 S8        29.74S
RHINELANDER    LGT RAIN  61  59  93 S9        29.78R
EAGLE RIVER    CLOUDY    59  58  94 S7        29.78R
LAND O LAKES   LGT RAIN  60  56  88 S5        29.79R
PHILLIPS       RAIN      60  60  99 SE8       29.71F
TOMAHAWK       NOT AVBL
MEDFORD        RAIN      59  58  95 SE6       29.74F
MERRILL        RAIN      60  60  99 SE6       29.78S
$$

WIZ029-030-035-036-043>047-281800-
CENTRAL WISCONSIN

CITY           SKY/WX    TMP DP  RH WIND       PRES   REMARKS
WAUSAU         RAIN      61  59  93 SE10      29.76S FOG
MOSINEE        LGT RAIN  61  59  94 SE10      29.79S
MARSHFIELD     HVY RAIN  62  60  93 S9        29.74F FOG
STEVENS POINT  RAIN      59  59 100 SE5       29.79F
WAUPACA        LGT RAIN  66  63  89 S7        29.79F
WAUTOMA        LGT RAIN  64  62  93 S7        29.79S
WISC RAPIDS    RAIN      63  62  97 S7        29.77F FOG
CAMP DOUGLAS   LGT RAIN  64  64 100 SW13      29.76R
$$

WIZ011>013-019>022-031-037>040-048>050-281800-
NORTHEAST WISCONSIN

CITY           SKY/WX    TMP DP  RH WIND       PRES   REMARKS
ANTIGO         CLOUDY    60  56  89 S13       29.81S
SHAWANO        CLOUDY    66  59  77 S5        29.81R
OCONTO         CLOUDY    65  58  79 S6        29.80S
STURGEON BAY     N/A     63  56  78 S17G24    29.82F
GREEN BAY      LGT RAIN  66  61  84 S16G23    29.80F
MANITOWOC      CLOUDY    60  56  86 S18G24    29.82F
APPLETON       LGT RAIN  64  57  77 MISG      29.80R
CLINTONVILLE   RAIN      63  57  82 S7        29.80F
OSHKOSH        LGT RAIN  65  60  84 S14G22    29.81R
$$

WIZ032>034-041-042-053>061-281800-
SOUTHWEST WISCONSIN

CITY           SKY/WX    TMP DP  RH WIND       PRES   REMARKS
LA CROSSE      LGT RAIN  71  67  87 S14G25    29.69F
SPARTA         LGT RAIN  65  64  97 S10G18    29.74R
VIROQUA        CLOUDY    65  65 100 S12G18    29.77R
BOSCOBEL       LGT RAIN  69  66  90 VRB5      29.77F FOG
PRAIRIE DU CHI LGT RAIN  68  65  89 SE7       29.74F
PLATTEVILLE    CLOUDY    66  66 100 S18G25    29.80F
$$

WIZ056-057-062-063-064-067-068-281800-
SOUTH CENTRAL WISCONSIN

CITY           SKY/WX    TMP DP  RH WIND       PRES   REMARKS
REEDSBURG      DRIZZLE   64  64 100 S15G24    29.79R
BARABOO/DELLS  DRIZZLE   64  61  92 SW15      29.79F
LONE ROCK      LGT RAIN  68  64  87 S10G21    29.79R
MINERAL POINT  LGT RAIN  64  64 100 S15G22    29.81R
MADISON        LGT RAIN  64  62  93 S13       29.82S
MIDDLETON      CLOUDY    66  64  96 S17       29.82R
WATERTOWN      CLOUDY    62  62 100 S12G18    29.85R
MONROE         LGT RAIN  64  61  88 S20G26    29.83F
JANESVILLE     CLOUDY    64  64 100 S15       29.86R
$$

WIZ051-052-058>065-066-070>072-281800-
SOUTHEAST WISCONSIN

CITY           SKY/WX    TMP DP  RH WIND       PRES   REMARKS
MILWAUKEE      LGT RAIN  64  59  83 S20G31    29.84F
WAUKESHA       LGT RAIN  61  57  88 S13G21    29.89F
MILWAUKEE/TIMM NOT AVBL
RACINE         LGT RAIN  63  57  81 S15G22    29.87F
KENOSHA        CLOUDY    63  59  87 S15G26    29.87F FOG
FOND DU LAC    LGT RAIN  65  59  81 S14       29.83R
SHEBOYGAN      CLOUDY    63  60  90 S12G21    29.82F
WEST BEND      CLOUDY    63  59  88 S14G20    29.85R
JUNEAU         RAIN      61  59  92 S12       29.86R
$$

LSZ147-162-281800-
LAKE SUPERIOR

STATION/POSITION TIME  TEMP    WIND        PRES    WAVE
                       AIR SEA DIR/SP/G            HT/PER
                 (UTC) (F)     (DEG/KT/KT) (MB)    (FT/S)
W MID LAKE BUOY  1650   45 39   70/  6/  6 1006.3F   1/ 4
DEVILS ISLAND    1700   53      30/  9/ 10 1005.0F
SAXON HARBOR     1640   66     190/  2/  7 1004.4F
$$

LMZ867-665-643>646-281800-
LAKE MICHIGAN

STATION/POSITION TIME  TEMP    WIND        PRES    WAVE
                       AIR SEA DIR/SP/G            HT/PER
                 (UTC) (F)     (DEG/KT/KT) (MB)    (FT/S)
CHAMBERS ISLAND  1640   62     140/  7/ 15 1009.8F
S GREEN BAY BUOY 1700   66     170/ 17/ 21 1008.9
N MID LAKE BUOY  1650   59 55  190/ 17/ 23 1011.9F   3/ 5
NORTHPORT PIER   1640   60     170/ 12/ 21 1010.8F
KEWAUNEE LAKESHO 1654   54     180/ 15/ 18 1009.9F
SHEBOYGAN LAKESH 1700   57     160/ 26/ 27 1009.3F
PORT WASHINGTON  1630   57     190/  5/ 12 1011.5F
ATWATER BUOY     1609   60 54  160/ 16/ 19 1012.0F
MILWAUKEE LAKESH 1700   62     190/ 13/ 14   N/A
S MID LAKE BUOY  1650   64 61  180/ 17/ 21 1014.4F   4/ 5
KENOSHA   LAKESH 1700   62     170/ 26/ 31 1010.8
$$

TC  - TEMPERATURE IN CELSIUS
VSB - VISIBILITY IN STATUTE MILES
WCI - WIND CHILL INDEX
HX  - HEAT INDEX





USA.gov is the U.S. government's official web portal to all federal, state and local government web resources and services.